Location: ???????
(55.9142°N, 37.8256°E)
Time: 10:40:36
(UTC+00:00)

Cosmos 1666 Rocket - Pass Details

Date: 14 April 2024
Orbit: 600 x 629 km, 82.5° (Epoch: 18 May)

Event Time Altitude Azimuth Distance (km) Brightness Sun altitude
Rises 01:28:03 0° 344° (NNW) 2,938 7.2 -8.1°
Reaches altitude 10° 01:30:22 10° 339° (NNW) 2,025 6.3 -7.8°
Maximum altitude 01:34:40 47° 266° (W) 836 3.9 -7.3°
Drops below altitude 10° 01:38:55 10° 193° (SSW) 2,000 5.8 -6.8°
Sets 01:41:11 0° 187° (S) 2,898 6.7 -6.5°
